Location: Gwatt
(46.7204°N, 7.6223°E)
Time: 11:31:31
(UTC+00:00)

Cosmos 1437 - Pass Details

Date: 18 September 2020
Orbit: 366 x 369 km, 81.2° (Epoch: 24 October)

Event Time Altitude Azimuth Distance (km) Brightness Sun altitude
Rises 18:02:47 0° 354° (N) 2,262 6.7 -5.6°
Reaches altitude 10° 18:04:50 10° 1° (N) 1,404 5.5 -6.0°
Maximum altitude 18:07:46 44° 76° (ENE) 538 2.9 -6.5°
Drops below altitude 10° 18:10:41 10° 150° (SSE) 1,391 5.0 -7.0°
Enters shadow 18:14:05 -5° 160° (SSE) 2,817 6.6 -7.6°
